Regional Weather Roundup
Issued by NWS

Home | Current Version | Previous Version | Text Only | Print | Product List | Glossary On
Versions: 1 2 3 4 5 6 7 8 9 10 11 12 13 14 15 16 17 18 19 20 21 22 23 24 25 26 27 28 29 30 31 32 33 34 35 36 37 38 39 40 41 42 43 44 45 46 47 48 49 50
000
ASUS43 KMPX 271701
RWRMN
WEATHER ROUNDUP FOR MINNESOTA
NATIONAL WEATHER SERVICE TWIN CITIES/CHANHASSEN MN
1200 PM CDT SAT MAY 27 2017


NOTE: "FAIR" INDICATES FEW OR NO CLOUDS BELOW 12,000 FEET WITH NO
SIGNIFICANT WEATHER AND/OR OBSTRUCTIONS TO VISIBILITY. N/A MEANS
CURRENT SKY AND/OR WEATHER CONDITIONS ARE NOT AVAILABLE.

MNZ060>063-068>070-271800-
   Twin Cities Metro

CITY           SKY/WX    TMP DP  RH WIND       PRES   REMARKS
TWIN CITIES    CLOUDY    70  43  37 W8        29.90S
ST PAUL        CLOUDY    70  44  39 W3        29.90S
CRYSTAL        CLOUDY    69  41  36 W6        29.89R
BLAINE         CLOUDY    70  45  40 W5        29.90R
LAKEVILLE      CLOUDY    66  46  48 W5        29.92R
EDEN PRAIRIE   CLOUDY    70  42  36 NW6       29.91R
SOUTH ST PAUL  CLOUDY    70  43  37 SW3       29.90S
LAKE ELMO      FAIR      70  46  43 SW3       29.90F
$$
MNZ001>005-007-008-013>017-022>024-027-028-271800-
   Northwest Minnesota

CITY           SKY/WX    TMP DP  RH WIND       PRES   REMARKS
BEMIDJI        MOSUNNY   71  38  30 W12G20    29.80F
HALLOCK        SUNNY     72  41  33 SW20G25   29.72F
ROSEAU         MOSUNNY   70  43  37 SW16G25   29.73F
WARROAD        SUNNY     72  43  35 SW12      29.74S
CROOKSTON      MOSUNNY   73  39  29 W18G24    29.78S
FOSSTON        SUNNY     70  39  32 W10       29.81S
DETROIT LAKES  SUNNY     72  41  33 W12G18    29.84S
MOORHEAD       SUNNY     75  37  25 W14G20    29.82F
PARK RAPIDS    SUNNY     73  38  27 W13       29.83F
MAHNOMEN       FAIR      71  41  33 SW15      29.81F
$$
MNZ006-009>011-018-025>026-271800-
   North Central Minnesota

CITY           SKY/WX    TMP DP  RH WIND       PRES   REMARKS
BAUDETTE       MOSUNNY   71  37  28 W14G23    29.75S
FLAG ISLAND    SUNNY     57  48  72 S16       29.71F
INTL FALLS     MOSUNNY   73  39  29 SW9G16    29.76F
WASKISH        CLOUDY    70  46  43 W9        29.79S
BIG FORK       MOSUNNY   72  39  30 SW8G16    29.80F
LONGVILLE      MOSUNNY   70  45  40 SW7       29.83F
GRAND RAPIDS   MOSUNNY   69  43  38 SW8G16    29.85F
CRANE LAKE     MOSUNNY   66  39  37 W7        29.81S
ORR            PTSUNNY   70  37  30 W7        29.77F
COOK           CLOUDY    68  45  42 W6        29.82S
WALKER         FAIR      70  40  34 W12       29.81F
$$
MNZ012-019>021-037-271800-
   Northeast Minnesota

CITY           SKY/WX    TMP DP  RH WIND       PRES   REMARKS
DULUTH         CLOUDY    68  43  40 W14G21    29.85R
ELY            CLOUDY    63  45  51 W10G16    29.82F
HIBBING        MOSUNNY   67  41  38 NW9       29.83F
EVELETH        CLOUDY    66  32  28 W9        29.84F
DULUTH HARBOR  MOSUNNY   70  46  43 W12       29.84S
TWO HARBORS    MOSUNNY   72  52  49 W6        29.81F
SILVER BAY     MOSUNNY   70  43  37 W8        29.81S
GRAND MARAIS     N/A     49  43  80 SW9       29.80F
G MARAIS ARPRT CLOUDY    64  41  42 W8        29.83F
$$
MNZ029>031-032-039>041-046>048-054>057-064-271800-
   West Central Minnesota

CITY           SKY/WX    TMP DP  RH WIND       PRES   REMARKS
FERGUS FALLS   SUNNY     73  43  33 W10G17    29.83S
WHEATON        SUNNY     75  36  23 W12G23    29.87F
MORRIS         MOSUNNY   73  43  33 W10       29.86F
ALEXANDRIA     CLOUDY    70  43  37 SW9       29.89S
ELBOW LAKE     FAIR      72  41  32 SW10G17   29.86F
WADENA         SUNNY     70  45  40 SW12G17   29.85S
GLENWOOD       CLOUDY    70  46  43 SW10      29.90R
APPLETON       PTSUNNY   72  46  40 SW9       29.88S
BENSON         CLOUDY    73  45  35 W10       29.90F
ORTONVILLE     CLOUDY    72  43  35 SW8       29.88S
MADISON        CLOUDY    73  52  46 W6        29.90S
WILLMAR        FAIR      70  46  43 SW7       29.91F
$$
MNZ033>034-036-042>043-049>051-058-059-271800-
   Central Minnesota

CITY           SKY/WX    TMP DP  RH WIND       PRES   REMARKS
ST CLOUD       CLOUDY    68  48  48 W7        29.89R
SAUK CENTRE    FAIR      69  47  46 S13       29.89S
PAYNESVILLE    CLOUDY    67  45  45 SW8       29.91S
AITKIN         CLOUDY    68  46  45 SW8       29.85S
PINE RIVER     MOSUNNY   70  46  43 SW8       29.88S
BRAINERD       CLOUDY    68  44  42 SW9       29.87S
STAPLES        MOSUNNY   70  43  37 SW7       29.86S
LONG PRAIRIE   FAIR      68  43  40 SW9       29.89S
LITTLE FALLS   CLOUDY    68  45  42 S6        29.89S
LITCHFIELD     CLOUDY    70  48  46 W6        29.92R
BUFFALO        CLOUDY    67  45  44 W5        29.92R
MAPLE LAKE     CLOUDY    68  50  52 SW5       29.91S
HUTCHINSON     MOSUNNY   68  47  46 SW6       29.93R
$$
MNZ037-044-045-052-053-271800-
   East Central Minnesota

CITY           SKY/WX    TMP DP  RH WIND       PRES   REMARKS
PRINCETON      CLOUDY    70  48  46 W5        29.89S
MORA           CLOUDY    64  45  48 NW6       29.90R
CAMBRIDGE      PTSUNNY   70  50  49 W5        29.88R
RUSH CITY      CLOUDY    67  47  48 SW7       29.89R
MOOSE LAKE     CLOUDY    68  45  42 W5        29.85R
HINCKLEY       FAIR      68  46  45 W10       29.88R
CLOQUET        PTSUNNY   68  37  32 W10       29.85S
MCGREGOR       CLOUDY    70  43  37 SW8       29.87S
$$
MNZ071>073-080-081-089-090-097-098-271800-
   Southwest Minnesota

CITY           SKY/WX    TMP DP  RH WIND       PRES   REMARKS
MONTEVIDEO     PTSUNNY   68  54  60 W3        29.91S
CANBY          CLOUDY    68  48  48 W7        29.92R
MARSHALL       CLOUDY    66  48  52 W12       29.92S
REDWOOD FALLS  CLOUDY    67  46  47 SW8       29.92R
OLIVIA         CLOUDY    70  50  49 SW7       29.91R
PIPESTONE      MOSUNNY   63  46  55 W7        29.95R
WINDOM         CLOUDY    64  48  55 S3        29.94S
WORTHINGTON    CLOUDY    61  50  67 CALM      29.96R
JACKSON        RAIN      59  52  77 S9        29.95S
TRACY          CLOUDY    65  51  58 SW7       29.94R
SLAYTON        CLOUDY    61  49  63 W7        29.95R
$$
MNZ065>067-074>077-082>085-091>093-271800-
   South Central Minnesota

CITY           SKY/WX    TMP DP  RH WIND       PRES   REMARKS
MANKATO        LGT RAIN  66  48  52 W3        29.94S
NEW ULM        CLOUDY    64  46  52 SW5       29.93R
ST JAMES       LGT RAIN  64  46  52 SE7       29.95R
FAIRMONT       CLOUDY    65  49  56 NW7       29.95R
GLENCOE        CLOUDY    68  49  50 SW3       29.92R
FARIBAULT      LGT RAIN  66  46  48 W5        29.94R
OWATONNA       CLOUDY    70  45  40 NW6       29.94R
WASECA         PTSUNNY   68  43  40 NW7       29.94S
ALBERT LEA     CLOUDY    72  45  37 CALM      29.93S
$$
MNZ078>079-086>088-094>096-271800-
   Southeast Minnesota

CITY           SKY/WX    TMP DP  RH WIND       PRES   REMARKS
ROCHESTER      CLOUDY    70  48  45 NW10      29.93R
RED WING       CLOUDY    72  43  35 W6        29.89F
STANTON        CLOUDY    69  45  41 W8        29.91R
DODGE CENTER   CLOUDY    68  45  42 NW7       29.94R
WINONA         SUNNY     72  52  49 N3        29.90S
AUSTIN         CLOUDY    68  46  45 NW5       29.93S
PRESTON        CLOUDY    70  48  46 W7        29.93R
$$
ABBREVIATIONS USED IN REMARKS
   TC - TEMPERATURES IN CELSIUS
  WCI - WIND CHILL INDEX
   HX - HEAT INDEX
  VSB - VISIBILITY
$$




USA.gov is the U.S. government's official web portal to all federal, state and local government web resources and services.